Location: Geçitköy
(36.7327°N, 29.8010°E)
Time: 19:14:32
(UTC+00:00)

SJ 16-02 - Pass Details

Date: 12 January 2026
Orbit: 583 x 594 km, 75.0° (Epoch: 11 February)

Event Time Altitude Azimuth Distance (km) Brightness Sun altitude
Rises 16:01:41 0° 340° (NNW) 2,820 4.8 -11.3°
Reaches altitude 10° 16:03:55 10° 339° (NNW) 1,918 3.9 -11.7°
Maximum altitude 16:08:10 70° 256° (WSW) 627 1.6 -12.5°
Drops below altitude 10° 16:12:24 10° 172° (S) 1,911 4.0 -13.3°
Sets 16:14:37 0° 170° (S) 2,810 4.8 -13.7°
